Location: Dampvalley
(47.9094°N, 6.1967°E)
Time: 02:09:23
(UTC+00:00)

N. Korean satellite - Pass Details

Date: 03 December 2022
Orbit: 408 x 444 km, 97.3° (Epoch: 28 January)

Event Time Altitude Azimuth Distance (km) Brightness Sun altitude
Rises 05:34:55 0° 4° (N) 2,526 10.1 -14.6°
Reaches altitude 10° 05:37:06 10° 355° (N) 1,640 9.0 -14.3°
Maximum altitude 05:40:18 34° 290° (WNW) 792 7.1 -13.7°
Drops below altitude 10° 05:43:28 10° 224° (SW) 1,607 8.9 -13.2°
Sets 05:45:35 0° 215° (SW) 2,467 10.0 -12.9°
